Location: Newark
(49.3000°N, 9.4667°E)
Time: 02:51:09
(UTC+00:00)

Transit 2A Rocket - Pass Details

Date: 28 May 2019
Orbit: 586 x 917 km, 66.7° (Epoch: 17 June)

Event Time Altitude Azimuth Distance (km) Brightness Sun altitude
Rises 23:12:04 0° 324° (NW) 3,464 9.3 -19.1°
Reaches altitude 10° 23:14:44 10° 330° (NNW) 2,481 8.5 -19.2°
Maximum altitude 23:20:19 52° 46° (NE) 990 5.8 -19.2°
Enters shadow 23:24:45 14° 120° (ESE) 2,033 6.9 -19.2°
